Location: Boca do Mato
(22.9085°S, 43.2930°W)
Time: 03:09:30
(UTC+00:00)

SMAP - Visible Passes

Search period start: 23 October 2020 00:00
Search period end: 02 November 2020 00:00
Orbit: 681 x 683 km, 98.1° (Epoch: 22 October)

Date Brightness Start Highest point End Pass type
(mag) Time Alt. Az. Time Alt. Az. Time Alt. Az.
23 Oct 6.6 22:16:27 10° SW 22:18:07 12° WSW 22:19:46 10° W visible
24 Oct 6.5 07:31:59 10° ENE 07:34:34 15° ESE 07:37:11 10° SE visible
25 Oct 5.8 21:50:18 10° SSW 21:53:58 23° WSW 21:57:37 10° NW visible
27 Oct 6.2 07:43:09 10° ENE 07:46:36 21° ESE 07:50:04 10° SSE visible
27 Oct 4.5 21:25:18 10° S 21:29:46 45° WSW 21:34:11 10° NNW visible
28 Oct 6.3 22:03:03 10° SSW 22:06:00 17° WSW 22:08:56 10° WNW visible
29 Oct 7.0 07:21:43 10° ESE 07:22:28 10° ESE 07:23:14 10° ESE visible
30 Oct 5.2 21:37:40 10° SSW 21:41:49 32° WSW 21:45:56 10° NW visible
31 Oct 6.6 22:16:20 10° SW 22:18:00 12° WSW 22:19:40 10° W visible
01 Nov 6.5 07:31:53 10° ENE 07:34:28 15° ESE 07:37:05 10° SE visible
